Hourly Weather Holudenovka

Today, 16 April, Friday

Time Temperature Precipitation Wind Pressure Humidity
00:00 +13°C° 0 mm 2 mps 745 mmHg 73%
01:00 +12°C° 0 mm 2 mps 745 mmHg 76%
02:00 +12°C° 0 mm 2 mps 745 mmHg 78%
03:00 +12°C° 0 mm 2 mps 745 mmHg 77%
04:00 +10°C° 0 mm 2 mps 745 mmHg 75%
05:00 +10°C° 0 mm 2 mps 745 mmHg 72%
06:00 +10°C° 0 mm 2 mps 745 mmHg 69%
07:00 +12°C° 0 mm 2 mps 745 mmHg 64%
08:00 +14°C° 0 mm 2 mps 746 mmHg 58%
09:00 +16°C° 0 mm 3 mps 746 mmHg 52%
10:00 +17°C° 0 mm 3 mps 746 mmHg 49%
11:00 +18°C° 0 mm 3 mps 746 mmHg 47%
12:00 +19°C° 0 mm 3 mps 746 mmHg 44%
13:00 +20°C° 0 mm 3 mps 746 mmHg 42%
14:00 +20°C° 0 mm 3 mps 746 mmHg 41%
15:00 +21°C° 0 mm 3 mps 746 mmHg 39%
16:00 +20°C° 0 mm 3 mps 746 mmHg 42%
17:00 +19°C° 0 mm 2 mps 746 mmHg 46%
18:00 +19°C° 0 mm 2 mps 746 mmHg 49%
19:00 +17°C° 0.4 mm 2 mps 747 mmHg 57%
20:00 +15°C° 0.4 mm 2 mps 747 mmHg 65%
21:00 +14°C° 0.4 mm 1 mps 747 mmHg 73%
22:00 +13°C° 0.3 mm 1 mps 747 mmHg 75%
23:00 +13°C° 0.3 mm 1 mps 747 mmHg 77%

Tomorrow, 17 April, Saturday

Time Temperature Precipitation Wind Pressure Humidity
00:00 +12°C° 0.3 mm 1 mps 747 mmHg 79%
01:00 +12°C° 0.3 mm 1 mps 747 mmHg 80%
02:00 +11°C° 0.3 mm 1 mps 747 mmHg 81%
03:00 +11°C° 0.3 mm 1 mps 748 mmHg 82%
04:00 +11°C° 0.1 mm 1 mps 747 mmHg 82%
05:00 +10°C° 0.1 mm 2 mps 747 mmHg 81%
06:00 +10°C° 0.1 mm 2 mps 747 mmHg 80%
07:00 +11°C° 0 mm 3 mps 747 mmHg 75%
08:00 +13°C° 0 mm 3 mps 747 mmHg 69%
09:00 +14°C° 0 mm 3 mps 747 mmHg 64%
10:00 +15°C° 0.1 mm 4 mps 747 mmHg 58%
11:00 +17°C° 0.1 mm 4 mps 747 mmHg 52%
12:00 +19°C° 0.1 mm 5 mps 747 mmHg 47%
13:00 +16°C° 0.4 mm 6 mps 747 mmHg 57%
14:00 +14°C° 0.4 mm 6 mps 747 mmHg 67%
15:00 +12°C° 0.4 mm 7 mps 747 mmHg 77%
16:00 +10°C° 0.8 mm 6 mps 748 mmHg 80%
17:00 +10°C° 0.8 mm 4 mps 748 mmHg 83%
18:00 +9°C° 0.8 mm 3 mps 749 mmHg 86%
19:00 +9°C° 0.2 mm 2 mps 749 mmHg 87%
20:00 +9°C° 0.2 mm 2 mps 749 mmHg 88%
21:00 +9°C° 0.2 mm 1 mps 749 mmHg 89%
22:00 +9°C° 0 mm 1 mps 749 mmHg 90%
23:00 +9°C° 0 mm 1 mps 749 mmHg 91%

Day after tomorrow, 18 April, Sunday

Time Temperature Precipitation Wind Pressure Humidity
00:00 +8°C° 0 mm 1 mps 749 mmHg 92%
01:00 +8°C° 0.1 mm 1 mps 749 mmHg 91%
02:00 +8°C° 0.1 mm 1 mps 749 mmHg 90%
03:00 +6°C° 0.1 mm 0 mps 749 mmHg 90%
04:00 +7°C° 0 mm 1 mps 749 mmHg 88%
05:00 +7°C° 0 mm 1 mps 748 mmHg 87%
06:00 +7°C° 0 mm 1 mps 748 mmHg 86%
07:00 +7°C° 0 mm 2 mps 748 mmHg 80%
08:00 +9°C° 0 mm 2 mps 748 mmHg 73%
09:00 +10°C° 0 mm 3 mps 748 mmHg 67%
10:00 +11°C° 0 mm 3 mps 748 mmHg 63%
11:00 +12°C° 0 mm 3 mps 748 mmHg 59%
12:00 +13°C° 0 mm 3 mps 748 mmHg 55%
13:00 +14°C° 0 mm 3 mps 748 mmHg 52%
14:00 +15°C° 0 mm 2 mps 748 mmHg 50%
15:00 +15°C° 0 mm 2 mps 748 mmHg 48%
16:00 +14°C° 0 mm 2 mps 748 mmHg 51%
17:00 +14°C° 0 mm 2 mps 748 mmHg 55%
18:00 +13°C° 0 mm 2 mps 748 mmHg 59%
19:00 +12°C° 0 mm 2 mps 749 mmHg 63%
20:00 +12°C° 0 mm 2 mps 749 mmHg 67%
21:00 +10°C° 0 mm 2 mps 749 mmHg 71%
22:00 +10°C° 0 mm 2 mps 749 mmHg 73%
23:00 +9°C° 0 mm 2 mps 749 mmHg 76%

19 April, Monday

Time Temperature Precipitation Wind Pressure Humidity
00:00 +10°C° 0 mm 1 mps 749 mmHg 79%
01:00 +8°C° 0 mm 2 mps 749 mmHg 81%
02:00 +8°C° 0 mm 2 mps 749 mmHg 84%
03:00 +8°C° 0 mm 2 mps 749 mmHg 87%
04:00 +8°C° 0 mm 2 mps 749 mmHg 88%
05:00 +8°C° 0 mm 2 mps 749 mmHg 89%
06:00 +8°C° 0 mm 2 mps 749 mmHg 89%
07:00 +9°C° 0 mm 3 mps 749 mmHg 84%
08:00 +10°C° 0 mm 3 mps 749 mmHg 79%
09:00 +12°C° 0 mm 4 mps 749 mmHg 73%
10:00 +12°C° 0 mm 5 mps 749 mmHg 70%
11:00 +13°C° 0 mm 6 mps 749 mmHg 66%
12:00 +13°C° 0 mm 6 mps 749 mmHg 63%
13:00 +12°C° 0 mm 7 mps 749 mmHg 64%
14:00 +11°C° 0 mm 7 mps 749 mmHg 66%
15:00 +11°C° 0 mm 7 mps 749 mmHg 67%
16:00 +10°C° 0 mm 7 mps 750 mmHg 68%
17:00 +10°C° 0 mm 7 mps 750 mmHg 68%
18:00 +9°C° 0 mm 6 mps 750 mmHg 69%
19:00 +8°C° 0 mm 7 mps 750 mmHg 72%
20:00 +8°C° 0 mm 7 mps 749 mmHg 75%
21:00 +6°C° 0 mm 7 mps 749 mmHg 78%
22:00 +6°C° 0 mm 7 mps 749 mmHg 80%
23:00 +6°C° 0 mm 7 mps 749 mmHg 81%

20 April, Tuesday

Time Temperature Precipitation Wind Pressure Humidity
00:00 +5°C° 0 mm 7 mps 749 mmHg 82%
01:00 +5°C° 0 mm 7 mps 749 mmHg 83%
02:00 +5°C° 0 mm 7 mps 748 mmHg 84%
03:00 +4°C° 0 mm 8 mps 748 mmHg 85%
04:00 +4°C° 0 mm 8 mps 748 mmHg 85%
05:00 +3°C° 0 mm 9 mps 747 mmHg 86%
06:00 +3°C° 0 mm 9 mps 747 mmHg 86%
07:00 +3°C° 0 mm 9 mps 747 mmHg 84%
08:00 +5°C° 0 mm 10 mps 746 mmHg 81%
09:00 +5°C° 0 mm 10 mps 746 mmHg 79%
10:00 +6°C° 0.2 mm 10 mps 746 mmHg 77%
11:00 +6°C° 0.2 mm 11 mps 746 mmHg 75%
12:00 +7°C° 0.2 mm 11 mps 745 mmHg 73%
13:00 +7°C° 0.9 mm 11 mps 745 mmHg 76%
14:00 +7°C° 0.9 mm 11 mps 744 mmHg 78%
15:00 +7°C° 0.9 mm 11 mps 744 mmHg 80%
16:00 +7°C° 2 mm 11 mps 743 mmHg 82%
17:00 +6°C° 2 mm 11 mps 743 mmHg 84%
18:00 +4°C° 2 mm 12 mps 743 mmHg 87%
19:00 +5°C° 1.5 mm 12 mps 743 mmHg 87%
20:00 +5°C° 1.5 mm 12 mps 743 mmHg 88%
21:00 +5°C° 1.5 mm 13 mps 743 mmHg 88%
22:00 +5°C° 1.5 mm 13 mps 743 mmHg 88%
23:00 +5°C° 1.5 mm 13 mps 742 mmHg 88%

21 April, Wednesday

Time Temperature Precipitation Wind Pressure Humidity
00:00 +5°C° 1.5 mm 12 mps 742 mmHg 88%
01:00 +6°C° 0.5 mm 11 mps 742 mmHg 89%
02:00 +6°C° 0.5 mm 11 mps 743 mmHg 90%
03:00 +6°C° 0.5 mm 10 mps 743 mmHg 91%
04:00 +6°C° 0.2 mm 9 mps 743 mmHg 91%
05:00 +6°C° 0.2 mm 9 mps 743 mmHg 91%
06:00 +7°C° 0.2 mm 8 mps 743 mmHg 91%
07:00 +7°C° 0.1 mm 8 mps 744 mmHg 89%
08:00 +8°C° 0.1 mm 7 mps 744 mmHg 88%
09:00 +9°C° 0.1 mm 7 mps 745 mmHg 86%
10:00 +9°C° 0.1 mm 7 mps 745 mmHg 85%
11:00 +9°C° 0.1 mm 6 mps 745 mmHg 84%
12:00 +9°C° 0.1 mm 6 mps 746 mmHg 84%
13:00 +9°C° 0.2 mm 6 mps 746 mmHg 83%
14:00 +9°C° 0.2 mm 6 mps 746 mmHg 83%
15:00 +9°C° 0.2 mm 5 mps 747 mmHg 83%
16:00 +9°C° 0.1 mm 5 mps 747 mmHg 81%
17:00 +10°C° 0.1 mm 5 mps 747 mmHg 79%
18:00 +10°C° 0.1 mm 5 mps 748 mmHg 77%
19:00 +10°C° 0.2 mm 4 mps 748 mmHg 81%
20:00 +8°C° 0.2 mm 4 mps 749 mmHg 85%
21:00 +8°C° 0.2 mm 4 mps 749 mmHg 88%
22:00 +7°C° 0.1 mm 4 mps 749 mmHg 88%
23:00 +8°C° 0.1 mm 3 mps 750 mmHg 88%
Show more